Weather History for KNJK - February, 2013

Change the Weather History Date:

Tuesday, February 5, 2013

  Actual Average (KCZZ) Record (KCZZ)
Temperature  
Mean Temperature 64 °F 49 °F  
Max Temperature 79 °F 63 °F 85 °F (1963)
Min Temperature 48 °F 35 °F 17 °F (1955)
Degree Days  
Heating Degree Days 2 16  
Month to date heating degree days 80  
Since 1 July heating degree days 1696  
Cooling Degree Days 0 0  
Month to date cooling degree days 0  
Year to date cooling degree days 0  
Growing Degree Days 14 (Base 50)    
Moisture  
Dew Point 40 °F    
Average Humidity 44    
Maximum Humidity 66    
Minimum Humidity 21    
Precipitation  
Precipitation 0.00 in 0.10 in 1.35 in (1976)
Month to date precipitation 0.51  
Year to date precipitation 3.49  
Snow  
Snow 0.00 in - - ()
Month to date snowfall  
Year to date snowfall  
Since 1 July snowfall  
Snow Depth -    
Sea Level Pressure  
Sea Level Pressure 29.97 in    
Wind  
Wind Speed 5 mph (SSW)    
Max Wind Speed 12 mph    
Max Gust Speed -    
Visibility 10 miles    
Events      
T = Trace of Precipitation, MM = Missing Value Source: NWS Daily Summary

Daily Weather History Graph

Daily Weather History Graph

Search for Another Location

Airport or City:

Trip Planner

Search our weather history database for the weather conditions in past years. The results will help you decide how hot, cold, wet, or windy it might be!

Date:

Astronomy

Feb. 05, 2013 Rise Set
Actual Time 6:34 AM PST 5:19 PM PST
Civil Twilight 6:08 AM PST 5:45 PM PST
Nautical Twilight 5:39 AM PST 6:14 PM PST
Astronomical Twilight 5:10 AM PST 6:43 PM PST
Moon 2:15 AM PST (2/5) 12:47 PM PST (2/5)
Length of Visible Light 11h 36m
Length of Day
10h 44m
Waning Crescent, 25% of the Moon is Illuminated
Feb 5
Waning Crescent
Feb 9
New
Feb 17
First Quarter
Feb 25
Full
Mar 4
Last Quarter

Hourly Weather History & Observations

Time (PST) Temp. Dew Point Humidity Pressure Visibility Wind Dir Wind Speed Gust Speed Precip Events Conditions
12:56 AM 55.0 °F 37.0 °F 51% 30.01 in 10.0 mi West 4.6 mph - N/A   Clear
1:56 AM 52.0 °F 36.0 °F 54% 30.00 in 10.0 mi NW 3.5 mph - N/A   Clear
2:56 AM 52.0 °F 37.0 °F 57% 29.99 in 10.0 mi West 5.8 mph - N/A   Clear
3:56 AM 52.0 °F 37.9 °F 59% 29.99 in 10.0 mi West 3.5 mph - N/A   Clear
4:56 AM 51.1 °F 39.0 °F 63% 30.00 in 10.0 mi WSW 4.6 mph - N/A   Clear
5:56 AM 48.9 °F 37.9 °F 66% 30.00 in 10.0 mi West 4.6 mph - N/A   Clear
6:56 AM 50.0 °F 36.0 °F 59% 30.01 in 10.0 mi Calm Calm - N/A   Clear
7:56 AM 54.0 °F 39.9 °F 59% 30.03 in 10.0 mi West 3.5 mph - N/A   Clear
8:56 AM 61.0 °F 42.1 °F 50% 30.05 in 10.0 mi WSW 4.6 mph - N/A   Clear
9:56 AM 66.9 °F 43.0 °F 42% 30.05 in 10.0 mi SSE 3.5 mph - N/A   Clear
10:56 AM 73.0 °F 42.1 °F 33% 30.03 in 10.0 mi ESE 3.5 mph - N/A   Clear
11:56 AM 77.0 °F 37.9 °F 24% 30.00 in 10.0 mi ENE 8.1 mph - N/A   Clear
12:56 PM 78.1 °F 37.0 °F 23% 29.96 in 10.0 mi Calm Calm - N/A   Partly Cloudy
1:56 PM 79.0 °F 37.9 °F 23% 29.93 in 10.0 mi ESE 6.9 mph - N/A   Partly Cloudy
2:56 PM 79.0 °F 36.0 °F 21% 29.91 in 10.0 mi SE 6.9 mph - N/A   Partly Cloudy
3:56 PM 75.9 °F 39.0 °F 26% 29.90 in 10.0 mi ESE 4.6 mph - N/A   Scattered Clouds
4:56 PM 71.1 °F 42.1 °F 35% 29.90 in 10.0 mi ESE 5.8 mph - N/A   Mostly Cloudy
5:56 PM 69.1 °F 39.9 °F 35% 29.90 in 10.0 mi SSE 4.6 mph - N/A   Mostly Cloudy
6:56 PM 64.9 °F 44.1 °F 47% 29.92 in 10.0 mi SSE 5.8 mph - N/A   Mostly Cloudy
7:56 PM 66.0 °F 43.0 °F 43% 29.92 in 10.0 mi South 6.9 mph - N/A   Scattered Clouds
8:56 PM 64.0 °F 43.0 °F 46% 29.93 in 10.0 mi South 8.1 mph - N/A   Scattered Clouds
9:56 PM 66.9 °F 39.0 °F 36% 29.93 in 10.0 mi SW 11.5 mph - N/A   Scattered Clouds
10:56 PM 64.0 °F 42.1 °F 45% 29.93 in 10.0 mi WSW 8.1 mph - N/A   Scattered Clouds
11:56 PM 62.1 °F 42.1 °F 48% 29.93 in 10.0 mi West 4.6 mph - N/A   Clear